Regional Weather Roundup
Issued by NWS Spokane, WA

Current Version | Previous Version | Text Only | Print | Product List | Glossary On
Versions: 1 2 3 4 5 6 7 8 9 10 11 12 13 14 15 16 17 18 19 20 21 22 23 24 25 26 27 28 29 30 31 32 33 34 35 36 37 38 39 40 41 42 43 44 45 46 47 48 49 50
000
NZUS01 KOTX 300400
RWROTX
EASTERN WASHINGTON/NORTHERN IDAHO ROUNDUP
NATIONAL WEATHER SERVICE, SPOKANE WA
900 PM PDT TUE JUL 29 2014

Note: "fair" indicated few or no clouds below 12,000 feet with no
significant weather and/or obstructions to visibility.

...NORTHEAST WASHINGTON AND NORTHERN IDAHO PANHANDLE...

CITY           SKY/WX    TMP DP  RH WIND       PRES   REMARKS
SPOKANE INTL   PTCLDY    91  38  15 S3        30.00R
SPOKANE DOWNTO CLEAR     81  45  28 CALM      29.97R
COEUR D ALENE  CLEAR     82  52  34 E5        29.99R
DEER PARK        N/A     75  46  35 NE5       29.99R

...SOUTHEAST WASHINGTON AND SOUTHERN IDAHO PANHANDLE...

CITY           SKY/WX    TMP DP  RH WIND       PRES   REMARKS
WALLA WALLA    PTCLDY    86  41  20 SE7       29.93R
PULLMAN/MOSCOW CLEAR     72  50  45 CALM      30.03R
LOWELL           N/A     73  58  59 N3        29.97R

...COLUMBIA BASIN...

CITY           SKY/WX    TMP DP  RH WIND       PRES   REMARKS
EPHRATA        MOCLDY    92  38  15 CALM      29.91R
MOSES LAKE     MOCLDY    92  48  22 S3        29.91S
TRI CITIES     PTCLDY    83  58  42 CALM      29.86R
HERMISTON      MOCLDY    88  41  19 S8        29.88R
PENDLETON      MOCLDY    86  37  17 NW5       29.95R

...EAST SLOPES CASCADES...

CITY           SKY/WX    TMP DP  RH WIND       PRES   REMARKS
THE DALLES     CLOUDY    85  60  42 NW17G28   29.92R
YAKIMA         MOCLDY    89  49  25 SW3       29.92R
ELLENSBURG     MOCLDY    83  49  30 NW17G24   29.99R
WENATCHEE      MOCLDY    94  36  13 NW14      29.92R
OMAK           PTCLDY    92  38  15 N13G23    29.90R

...SOUTHERN BRITISH COLUMBIA...

CITY           SKY/WX    TMP DP  RH WIND       PRES   REMARKS

...WESTERN MONTANA...

CITY           SKY/WX    TMP DP  RH WIND       PRES   REMARKS
MISSOULA       PTCLDY    80  32  17 SW5       30.09R

...NEIGHBORING CITIES...

CITY           SKY/WX    TMP DP  RH WIND       PRES   REMARKS
SEATTLE        PTCLDY    77  49  37 E6        30.08S



USA.gov is the U.S. government's official web portal to all federal, state and local government web resources and services.